Flag for Spain Weather past 2 weeks in Torrevieja, Spain

Now
81 °F

Passing clouds.


Feels Like: 83 °F
Forecast: 73 / 91 °F
Wind: 5 mph from North

Location: Murcia / San Javier

Current Time: Aug 3, 2015 at 9:40:55 AM

Latest Report: Aug 3, 2015 at 9:00 AM


Visibility: N/A

Pressure: 30.01 "Hg

Humidity: 66%

Dew point: 68 °F

Location of TorreviejaLocation

Historic Weather in Torrevieja — Graph

°F

Torrevieja temperature yesterday

Maximum temperature yesterday: 86 °F (at 2:00 PM)
Minimum temperature yesterday: 79 °F (at 8:00 AM)
Average temperature yesterday: 83 °F

Past Weeks' High & Low Weather Summary

 TemperatureHumidityPressure
High99 °F (Jul 27, 2:00 PM)89% (Jul 20, 7:00 AM)30.04 "Hg (Jul 20, 7:00 AM)
Low75 °F (Jul 19, 8:00 AM)36% (Jul 19, 7:00 PM)29.71 "Hg (Jul 31, 6:00 PM)
Average85 °F70%29.90 "Hg
* Reported Jul 19 8:00 AM — Aug 3 8:00 AM, Torrevieja, Weather by CustomWeather, © 2015

Note: Actual official high and low records may vary slightly from our data, if they occured in-between our weather recording intervals... More about our weather records

Advertising

Torrevieja weather history for previous 24 hours

 ConditionsComfort  
Time TempWeatherWind HumidityBarometerVisibility
8:00 AM
Mon, Aug 3
75 °FPassing clouds.6 mph78%30.01 "HgN/A
7:00 AM75 °FPassing clouds.1 mph78%29.98 "HgN/A
11:00 PM
Sun, Aug 2
81 °FPassing clouds.8 mph74%30.04 "HgN/A
10:00 PM81 °FPassing clouds.8 mph79%30.01 "HgN/A
9:00 PM81 °FPassing clouds.9 mph79%29.98 "HgN/A
8:00 PM82 °FPassing clouds.9 mph74%29.98 "HgN/A
7:00 PM84 °FPassing clouds.9 mph66%29.98 "HgN/A
6:00 PM82 °FScattered clouds.10 mph74%29.98 "HgN/A
5:00 PM84 °FPassing clouds.10 mph70%30.01 "HgN/A
4:00 PM86 °FPassing clouds.13 mph66%30.01 "HgN/A
3:00 PM86 °FPassing clouds.13 mph62%30.04 "HgN/A
2:00 PM86 °FPassing clouds.14 mph62%30.04 "HgN/A
1:00 PM84 °FPassing clouds.13 mph62%30.04 "HgN/A
12:00 PM84 °FScattered clouds.14 mph62%30.04 "HgN/A
11:00 AM82 °FPartly sunny.15 mph70%30.01 "HgN/A
10:00 AM81 °FPartly sunny.15 mph74%30.01 "HgN/A
9:00 AM79 °FPartly sunny.15 mph79%30.01 "HgN/A
Weather by CustomWeather, © 2015

See weather overviewHow to use our weather pages